Change the Weather History Date:

Monday, April 30, 2012

  Actual Average (KBDE) Record (KBDE)
Temperature  
Mean Temperature 55 °F -  
Max Temperature 64 °F 59 °F 88 °F (1952)
Min Temperature 46 °F 35 °F 18 °F (1990)
Degree Days  
Heating Degree Days 10    
Growing Degree Days 5 (Base 50)    
Moisture  
Dew Point 43 °F    
Average Humidity 67    
Maximum Humidity 87    
Minimum Humidity 45    
Precipitation  
Precipitation 0.00 in - - ()
Sea Level Pressure  
Sea Level Pressure 29.81 in    
Wind  
Wind Speed 6 mph (SSW)    
Max Wind Speed 12 mph    
Max Gust Speed 16 mph    
Visibility 10 miles    
Events      
Averages and records for this station are not official NWS values.
T = Trace of Precipitation, MM = Missing Value Source: NWS Daily Summary

Daily Weather History Graph

Daily Weather History Graph

Search for Another Location

Airport or City:

Trip Planner

Search our weather history database for the weather conditions in past years. The results will help you decide how hot, cold, wet, or windy it might be!

Date:

Astronomy

Apr. 30, 2012 Rise Set
Actual Time 6:00 AM CDT 8:31 PM CDT
Civil Twilight 5:25 AM CDT 9:05 PM CDT
Nautical Twilight 4:41 AM CDT 9:50 PM CDT
Astronomical Twilight 3:51 AM CDT 10:41 PM CDT
Moon 2:01 PM CDT (4/30) 2:54 AM CDT (4/30)
Length of Visible Light 15h 40m
Length of Day
14h 30m
Waxing Gibbous, 64% of the Moon is Illuminated
Apr 30
Waxing Gibbous
May 5
Full
May 12
Last Quarter
May 20
New
May 28
First Quarter

Hourly Weather History & Observations

Time (CDT) Temp. Windchill Dew Point Humidity Pressure Visibility Wind Dir Wind Speed Gust Speed Precip Events Conditions
12:05 AM 51.8 °F - 42.8 °F 71% 29.94 in 10.0 mi SSE 6.9 mph - N/A   Overcast
12:26 AM 51.8 °F - 41.0 °F 67% 29.93 in 10.0 mi SSE 5.8 mph - N/A   Overcast
12:46 AM 50.0 °F - 41.0 °F 71% 29.93 in 10.0 mi SSE 5.8 mph - N/A   Overcast
1:06 AM 51.8 °F - 42.8 °F 71% 29.92 in 10.0 mi South 4.6 mph - N/A   Overcast
1:26 AM 51.8 °F - 42.8 °F 71% 29.91 in 10.0 mi South 3.5 mph - N/A   Overcast
1:46 AM 51.8 °F - 42.8 °F 71% 29.91 in 10.0 mi South 3.5 mph - N/A   Overcast
2:26 AM 51.8 °F - 42.8 °F 71% 29.90 in 10.0 mi Calm Calm - N/A   Overcast
2:46 AM 48.2 °F - 42.8 °F 82% 29.90 in 10.0 mi Calm Calm - N/A   Mostly Cloudy
3:06 AM 48.2 °F - 42.8 °F 82% 29.90 in 10.0 mi Calm Calm - N/A   Mostly Cloudy
3:26 AM 48.2 °F - 42.8 °F 82% 29.90 in 10.0 mi South 3.5 mph - N/A   Overcast
3:46 AM 48.2 °F - 42.8 °F 82% 29.89 in 10.0 mi Calm Calm - N/A   Mostly Cloudy
4:06 AM 48.2 °F - 42.8 °F 82% 29.89 in 10.0 mi South 3.5 mph - N/A   Scattered Clouds
4:26 AM 48.2 °F - 42.8 °F 82% 29.88 in 10.0 mi Calm Calm - N/A   Mostly Cloudy
4:47 AM 48.2 °F - 42.8 °F 82% 29.88 in 10.0 mi South 3.5 mph - N/A   Overcast
5:06 AM 48.2 °F - 42.8 °F 82% 29.87 in 10.0 mi South 4.6 mph - N/A   Overcast
5:26 AM 48.2 °F - 42.8 °F 82% 29.87 in 10.0 mi South 3.5 mph - N/A   Overcast
5:46 AM 48.2 °F - 42.8 °F 82% 29.86 in 10.0 mi SSE 4.6 mph - N/A   Overcast
6:06 AM 48.2 °F - 42.8 °F 82% 29.87 in 10.0 mi South 3.5 mph - N/A   Overcast
6:26 AM 48.2 °F - 42.8 °F 82% 29.86 in 10.0 mi Calm Calm - N/A   Overcast
6:46 AM 46.4 °F 44.3 °F 42.8 °F 87% 29.87 in 10.0 mi South 4.6 mph - N/A   Overcast
7:06 AM 48.2 °F - 42.8 °F 82% 29.87 in 10.0 mi South 3.5 mph - N/A   Overcast
7:26 AM 48.2 °F - 44.6 °F 87% 29.87 in 10.0 mi South 4.6 mph - N/A   Overcast
7:46 AM 48.2 °F - 44.6 °F 87% 29.87 in 10.0 mi South 5.8 mph - N/A   Overcast
8:06 AM 48.2 °F - 44.6 °F 87% 29.87 in 10.0 mi South 5.8 mph - N/A   Mostly Cloudy
8:26 AM 51.8 °F - 44.6 °F 76% 29.86 in 10.0 mi SSW 8.1 mph - N/A   Mostly Cloudy
8:46 AM 51.8 °F - 46.4 °F 82% 29.85 in 10.0 mi SW 9.2 mph - N/A   Mostly Cloudy
9:06 AM 51.8 °F - 46.4 °F 82% 29.85 in 10.0 mi SW 9.2 mph - N/A   Scattered Clouds
9:26 AM 51.8 °F - 46.4 °F 82% 29.84 in 10.0 mi SW 10.4 mph - N/A   Mostly Cloudy
9:46 AM 53.6 °F - 46.4 °F 77% 29.83 in 10.0 mi SW 10.4 mph - N/A   Scattered Clouds
10:06 AM 55.4 °F - 46.4 °F 72% 29.83 in 10.0 mi SW 11.5 mph 16.1 mph N/A   Scattered Clouds
10:26 AM 55.4 °F - 46.4 °F 72% 29.83 in 10.0 mi SW 11.5 mph - N/A   Scattered Clouds
10:46 AM 55.4 °F - 46.4 °F 72% 29.83 in 10.0 mi WSW 10.4 mph - N/A   Clear
11:06 AM 57.2 °F - 46.4 °F 67% 29.82 in 10.0 mi WSW 9.2 mph - N/A   Clear
11:36 AM 57.2 °F - 46.4 °F 67% 29.82 in 10.0 mi WSW 9.2 mph - N/A   Clear
11:55 AM 57.2 °F - 46.4 °F 67% 29.82 in 10.0 mi SW 11.5 mph - N/A   Clear
12:15 PM 57.2 °F - 44.6 °F 63% 29.81 in 10.0 mi WSW 11.5 mph - N/A   Clear
12:36 PM 59.0 °F - 44.6 °F 59% 29.80 in 10.0 mi WSW 9.2 mph - N/A   Clear
12:55 PM 59.0 °F - 44.6 °F 59% 29.80 in 10.0 mi WSW 8.1 mph - N/A   Clear
1:16 PM 59.0 °F - 42.8 °F 55% 29.79 in 10.0 mi WSW 9.2 mph - N/A   Clear
1:35 PM 60.8 °F - 44.6 °F 55% 29.79 in 10.0 mi WSW 10.4 mph - N/A   Clear
1:55 PM 62.6 °F - 44.6 °F 52% 29.78 in 10.0 mi SW 11.5 mph - N/A   Clear
2:16 PM 60.8 °F - 42.8 °F 52% 29.78 in 10.0 mi SW 10.4 mph - N/A   Clear
2:36 PM 62.6 °F - 46.4 °F 55% 29.78 in 10.0 mi WSW 10.4 mph - N/A   Clear
2:55 PM 62.6 °F - 42.8 °F 48% 29.77 in 10.0 mi SW 10.4 mph - N/A   Clear
3:16 PM 62.6 °F - 44.6 °F 52% 29.77 in 10.0 mi WSW 10.4 mph - N/A   Clear
3:35 PM 60.8 °F - 42.8 °F 52% 29.76 in 10.0 mi WSW 10.4 mph - N/A   Scattered Clouds
3:55 PM 62.6 °F - 42.8 °F 48% 29.76 in 10.0 mi SW 10.4 mph - N/A   Scattered Clouds
4:16 PM 62.6 °F - 42.8 °F 48% 29.75 in 10.0 mi WSW 10.4 mph - N/A   Scattered Clouds
4:35 PM 60.8 °F - 42.8 °F 52% 29.75 in 10.0 mi WSW 8.1 mph - N/A   Mostly Cloudy
4:55 PM 64.4 °F - 42.8 °F 45% 29.75 in 10.0 mi SW 8.1 mph - N/A   Mostly Cloudy
5:16 PM 62.6 °F - 42.8 °F 48% 29.74 in 10.0 mi WSW 8.1 mph - N/A   Mostly Cloudy
5:35 PM 62.6 °F - 42.8 °F 48% 29.74 in 10.0 mi SW 9.2 mph - N/A   Scattered Clouds
5:55 PM 62.6 °F - 41.0 °F 45% 29.74 in 10.0 mi WSW 8.1 mph - N/A   Scattered Clouds
6:16 PM 62.6 °F - 42.8 °F 48% 29.74 in 10.0 mi SW 5.8 mph - N/A   Scattered Clouds
6:35 PM 62.6 °F - 42.8 °F 48% 29.74 in 10.0 mi SW 8.1 mph - N/A   Clear
6:55 PM 62.6 °F - 42.8 °F 48% 29.73 in 10.0 mi SW 6.9 mph - N/A   Scattered Clouds
7:16 PM 60.8 °F - 42.8 °F 52% 29.73 in 10.0 mi SW 4.6 mph - N/A   Mostly Cloudy
7:35 PM 60.8 °F - 42.8 °F 52% 29.73 in 10.0 mi SW 5.8 mph - N/A   Scattered Clouds
7:55 PM 60.8 °F - 41.0 °F 48% 29.73 in 10.0 mi SSW 5.8 mph - N/A   Scattered Clouds
8:15 PM 59.0 °F - 39.2 °F 48% 29.73 in 10.0 mi Calm Calm - N/A   Scattered Clouds
8:35 PM 57.2 °F - 39.2 °F 51% 29.74 in 10.0 mi Calm Calm - N/A   Clear
8:56 PM 51.8 °F - 39.2 °F 62% 29.74 in 10.0 mi Calm Calm - N/A   Clear
9:15 PM 48.2 °F - 39.2 °F 71% 29.75 in 10.0 mi Calm Calm - N/A   Scattered Clouds
9:56 PM 48.2 °F - 39.2 °F 71% 29.75 in 10.0 mi Calm Calm - N/A   Mostly Cloudy
10:15 PM 48.2 °F - 39.2 °F 71% 29.75 in 10.0 mi Calm Calm - N/A   Mostly Cloudy
10:35 PM 48.2 °F - 39.2 °F 71% 29.75 in 10.0 mi SSE 3.5 mph - N/A   Scattered Clouds
10:56 PM 46.4 °F 45.2 °F 39.2 °F 76% 29.75 in 10.0 mi South 3.5 mph - N/A   Scattered Clouds
11:15 PM 46.4 °F 44.3 °F 39.2 °F 76% 29.75 in 10.0 mi SSE 4.6 mph - N/A   Clear
11:36 PM 48.2 °F - 39.2 °F 71% 29.74 in 10.0 mi SE 4.6 mph - N/A   Clear
11:55 PM 48.2 °F - 39.2 °F 71% 29.74 in 10.0 mi Calm Calm - N/A   Clear